map of BUG home
Great Circle Mapper logo
BUG - Airport
Location
City:  Benguela, Angola
Name:Gen V Deslandes
ICAO / IATA:FNBG / BUG

Details
Type:Airport (Aerodrome, Airfield)
Latitude:1236'32"S (-12.609024)
Longitude:1324'13"E (13.403711)
Datum:other
Elevation:118 ft (36 m)
Runways:1
Longest:5315 × 100 ft (1620 × 30.5 m), paved

Time
Time Zone:UTC+1
Local Time:

Weather
METAR:FNBG 251000Z 34011KT CAVOK 27/19 Q1014
TAF:FNBG 241100Z 2412/2424 30010KT 9999 FEW020 SCT040
TEMPO 2414/2418 24010G20KT CAVOK
BECMG 2418/2420 18005KT SCT022 BKN030
TEMPO 2420/2424 12005KT 8000 DZ FEW010 BKN020

Related Locations
Nearby:
Farthest:PLPA: 11880 mi / 19119 km
Palmyra Island Atoll [Palmyra Airport (Cooper)], UM

Find:

   beyond  
but within

Other Information
Maps:
NOTAMs:
Links:
Sources:

  
flag of Angola   

Sectional Chart

Flight Planning
at skyvector.com

Satellite Image

Google Maps Satellite View

 

Copyright © 2004-2014 Karl L. Swartz. All rights reserved.
The Great Circle Mapper name and logo are trademarks of the Great Circle Mapper.
All other trademarks mentioned herein belong to their respective owners.
Please see credits for attibutions and further copyright information.

  Follow gcmap on Facebook Follow gcmap on Twitter

hCard Microformat

Geo Microformat